User: anonymous   Login
Location: ???????
(55.4362°N, 38.1183°E)
Time: 11:11:46
(UTC+00:00)
Language:

Cosmos 372 Rocket - Orbit

View from above orbital plane
View from above orbital plane
View from above satellite
View from above satellite

Ground track
Ground track

The orbit data is extracted from the following two-line orbital elements,

1  4589U 70086B   21266.09139714  .00000015  00000-0  12652-4 0  9994
2  4589  74.0600 314.5272 0019792 139.1519 221.1124 14.41654788671922
Epoch (UTC): 23 September 2021 02:11:36
Eccentricity: 0.0019792
inclination: 74.0600°
perigee height: 739 km
apogee height: 767 km
right ascension of ascending node: 314.5272°
argument of perigee: 139.1519°
revolutions per day: 14.41654788
mean anomaly at epoch: 221.1124°
orbit number at epoch: 67192

The dashed part of the orbit path shows where the satellite is in the earth's shadow,  

DLR